Weather in Pelya-Khovanskaya

Russia / Nizhny Novgorod Oblast'     54°35′45″N   44°55′56″E
temp.,
°C
wind,
m/s
gust,
m/s
humid.,
%
clouds,
%
prec.,
mm/h
press.,
hPa
HPBL,
m
11 april, sun
sun1100:00+1n2599100 0.0 1026138
03:00+1n3799100 0.0 1027234
06:00+1n4899100 0.0 1028290
09:00+2nne4799100 0.0 1030298
12:00+6nne458298 0.0 1030411
15:00+7ne4672100 0.0 1031540
18:00+5ne4884100 0.0 1032278
21:00+4ene3991100 0.0 1033275
12 april, mon
mon1200:00+4ne41094100 0.8 1033290
03:00+4ne51197100 1.6 1034325
06:00+4ene6129793 0.1 1033333
09:00+5ene61193100 0.1 1034361
12:00+10e71086100 0.0 1033493
15:00+12e5781100 0.0 1033563
18:00+11ene51089100 0.0 1032280
21:00+9e499451 0.0 1032168
13 april, tue
tue1300:00+8ese348933 0.0 103261
03:00+8se338472 0.0 103234
06:00+7se3482100 0.0 103154
09:00+12sse496179 0.0 1031361
12:00+16sse564263 0.0 1030901
15:00+18s56355 0.0 10291247
18:00+15sse35495 0.0 102879
21:00+11sse356053 0.0 102959
14 april, wed
wed1400:00+9sse33660 0.0 102829
03:00+8sse33700 0.0 102818
06:00+7sse22730 0.0 102821
09:00+12sse355891 0.0 1027255
12:00+17sse454592 0.0 1026912
15:00+18sse45345 0.0 10241393
18:00+16se23455 0.0 102327
21:00+12sse225610 0.0 102313
15 april, thu
thu1500:00+9sse22625 0.0 102214
03:00+8se22675 0.0 102112
06:00+7sse22695 0.0 102111
09:00+12sse34555 0.0 1020265
12:00+17sse34445 0.0 1018995
15:00+18s23425 0.0 10161681
18:00+16nnw115063 0.0 101511
21:00+14nne2259100 0.0 101425